Location: Unspecified
(52.1971°N, 0.0000°E)
Time: 13:18:18
(UTC+00:00)

ISS - Pass Details

Date: 23 May 2019
Orbit: 407 x 418 km, 51.6° (Epoch: 24 June)

Event Time Altitude Azimuth Distance (km) Brightness Sun altitude
Rises 22:56:53 0° 278° (W) 2,362 0.4 -16.0°
Reaches altitude 10° 22:58:59 10° 276° (W) 1,500 -0.7 -16.1°
Maximum altitude 23:02:20 69° 192° (SSW) 453 -3.9 -16.2°
Enters shadow 23:03:53 29° 116° (ESE) 803 -2.7 -16.2°
